This demonstration page uses our WeatherBlox Daily Observations layout. Learn more.

41.55636, -103.73856

Hourly Observations for August 3, 2019

Temp ( °F °C ) Dew Point ( °F °C ) Humidity (%) Winds ( mph kmh ) Pressure ( in mb ) Visibility ( mi km ) Precip ( " mm )
12:58 am 00:58 Clear 79 26.1 55 12.6 43 43 E 10 17 30.06 1018 10 16.0934 0 0
1:58 am 01:58 Clear 74 23.3 58 14.6 58 58 E 9 15 30.07 1018 10 16.0934 0 0
2:58 am 02:58 Clear 69 20.7 57 14.1 66 66 E 8 13 30.09 1019 10 16.0934 0 0
3:58 am 03:58 Clear 66 18.7 57 13.9 74 74 SE 6 9 30.11 1020 10 16.0934 0 0
4:58 am 04:58 Clear 65 18.1 57 13.8 76 76 ESE 6 9 30.12 1020 10 16.0934 0 0
5:58 am 05:58 Clear 64 17.7 57 13.7 78 78 SE 8 13 30.11 1020 10 16.0934 0 0
6:58 am 06:58 Clear 62 16.6 56 13.3 81 81 S 7 11 30.1 1019 10 16.0934 0 0
7:58 am 07:58 Clear 61 16.1 56 13.6 85 85 SSW 9 15 30.1 1019 10 16.0934 0 0
8:58 am 08:58 Clear 61 15.9 56 13.6 86 86 SSW 10 17 30.07 1018 10 16.0934 0 0
9:58 am 09:58 Clear 60 15.8 57 13.7 87 87 SSW 8 13 30.06 1018 10 16.0934 0 0
10:58 am 10:58 Clear 60 15.7 56 13.6 87 87 SSW 8 13 30.05 1018 10 16.0934 0 0
11:58 am 11:58 Sunny 60 15.6 56 13.4 87 87 SSW 7 11 30.06 1018 10 16.0934 0 0
12:58 pm 12:58 Sunny 63 17 58 14.4 85 85 S 8 13 30.07 1018 10 16.0934 0 0
1:58 pm 13:58 Sunny 68 20 62 16.4 80 80 S 8 13 30.08 1019 10 16.0934 0 0
2:58 pm 14:58 Sunny 73 22.5 62 16.8 70 70 SSE 12 19 30.07 1018 10 16.0934 0 0
3:58 pm 15:58 Sunny 76 24.2 61 16.2 61 61 SSE 12 19 30.08 1019 10 16.0934 0 0
4:58 pm 16:58 Sunny 79 26 62 16.4 56 56 S 12 19 30.07 1018 10 16.0934 0 0
5:58 pm 17:58 Sunny 81 27.4 62 16.4 51 51 SE 6 9 30.06 1018 10 16.0934 0 0
6:58 pm 18:58 Sunny 84 28.7 60 15.8 46 46 SE 12 19 30.06 1018 10 16.0934 0 0
7:58 pm 19:58 Mostly Sunny 85 29.4 59 15 42 42 SSE 10 17 30.04 1017 10 16.0934 0 0
8:58 pm 20:58 Sunny 86 29.8 59 14.9 40 40 S 10 17 30.01 1016 10 16.0934 0 0
9:58 pm 21:58 Sunny 85 29.4 59 15 42 42 SSE 16 26 30.02 1017 10 16.0934 0 0
10:58 pm 22:58 Mostly Sunny 84 28.7 58 14.3 41 41 SSE 16 26 30.01 1016 10 16.0934 0 0
11:58 pm 23:58 Sunny 82 28 56 13.1 40 40 S 15 24 30 1016 10 16.0934 0 0

Powered by AerisWeather